Wind_Speed
4 10 14 11 15 18 22 15 12 13 14 9 8 13 22 20 15 17 15 14 13 13 15 17 17 21 26 28 35 30 48 44 39 48 49 43 45 37 31 27 24 24 27 33
12 21 6 12 16 7 5 13 16 3 5 3 11 7 21 15 3 11 13 12 14 9 16 16 28 32 33 43 36 36 35 40 42 45 44 41 47 43 33 26 23 23 25 28
17 12 12 9 5 4 8 14 3 5 7 3 9 13 6 2 8 8 13 11 9 18 9 16 23 16 22 28 29 33 40 46 39 47 36 43 48 46 36 35 30 29 29 34
19 21 13 7 5 10 10 10 7 3 9 11 8 6 3 6 6 5 15 12 9 10 4 10 24 23 23 25 27 36 46 41 41 45 45 47 55 45 49 45 36 31 28 28
21 7 3 6 6 6 3 13 13 8 12 18 7 10 7 6 2 2 11 13 5 3 4 12 20 22 21 28 36 36 35 34 40 43 47 51 48 48 46 41 36 33 30 28
13 5 2 1 1 4 11 13 10 13 14 5 7 8 8 12 5 7 7 11 10 7 9 14 17 18 25 27 27 27 35 40 43 48 49 47 45 44 42 39 37 36 31 28
9 10 12 6 1 8 6 7 8 8 4 4 8 21 10 9 6 7 12 5 4 10 14 13 12 16 16 22 27 30 31 37 47 47 44 41 40 36 36 37 36 32 30 28
13 11 12 10 9 7 8 7 7 2 1 6 13 11 11 9 11 12 13 8 10 10 7 11 16 22 25 25 29 34 42 47 46 45 41 42 40 40 38 37 34 28 26 25
9 4 16 7 3 2 6 11 9 11 11 10 10 21 16 20 17 15 11 12 9 7 13 18 22 25 30 32 37 42 48 40 41 39 41 41 39 38 36 33 30 29 25 19
4 0 3 7 7 6 3 7 6 6 3 5 12 17 13 16 16 13 9 7 6 10 16 20 25 29 33 38 39 41 34 32 38 38 38 36 36 34 33 31 29 27 25 21
2 4 4 2 4 6 6 8 6 3 6 2 4 6 5 4 6 3 4 4 7 11 19 26 31 36 40 42 36 31 28 33 35 35 35 33 33 32 32 31 29 28 26 23
8 4 4 5 0 6 5 7 3 2 5 5 11 7 5 8 11 6 2 8 13 17 24 29 32 33 33 23 22 25 31 34 35 35 33 30 30 30 29 29 28 28 28 26
7 2 1 4 6 9 11 9 8 4 5 7 7 11 14 10 2 6 9 15 22 26 26 29 31 28 24 21 23 27 32 32 31 30 29 30 29 27 26 27 27 27 27 26
6 4 5 2 2 4 6 8 5 3 10 11 24 21 6 4 6 12 17 21 24 27 31 28 22 19 20 23 26 29 30 29 28 28 29 28 26 26 27 27 27 26 27 27
3 5 1 2 6 10 10 8 10 13 9 18 16 11 2 6 9 16 21 20 21 27 25 18 17 19 20 24 26 28 27 26 26 26 25 25 27 27 28 28 27 26 26 27
6 4 4 4 4 8 8 6 6 4 13 16 12 12 1 7 17 21 18 18 23 22 15 13 16 18 20 23 26 25 26 25 26 25 25 27 28 28 30 28 27 25 26 27
5 7 8 8 10 8 10 6 5 7 10 8 7 5 12 16 18 18 16 18 22 14 9 12 15 18 20 22 24 23 25 25 24 24 25 26 27 28 29 28 27 27 28 29
4 8 8 8 11 4 8 9 5 7 7 5 5 8 11 18 18 18 16 19 16 7 7 12 14 16 19 21 20 22 23 22 21 23 25 25 25 28 30 30 29 30 31 32
7 12 4 12 6 10 8 9 11 9 7 10 10 12 14 16 16 17 15 15 6 3 7 10 12 14 17 19 20 22 21 20 20 21 22 22 23 26 28 28 28 30 30 30
8 15 6 6 5 5 14 15 11 11 7 14 15 14 14 15 14 17 15 7 3 3 7 10 11 14 16 18 20 21 21 19 19 22 23 20 18 22 25 25 25 29 28 30
11 12 10 9 3 9 13 11 6 8 9 14 13 15 13 8 9 10 7 4 4 2 7 11 12 12 15 19 20 21 21 19 18 19 22 22 17 19 21 22 22 24 24 27
8 7 10 12 4 7 16 12 8 8 10 11 13 14 9 7 7 6 5 6 5 3 8 10 13 14 15 17 20 21 21 21 20 17 18 20 19 20 19 21 22 23 23 26
10 7 2 5 3 6 9 9 8 7 9 10 10 10 7 6 5 5 5 6 5 3 7 10 13 14 14 15 18 20 20 20 19 17 15 18 19 18 19 19 20 22 24 26
13 10 9 6 4 6 5 6 6 7 8 9 8 6 5 5 4 4 5 5 4 3 7 12 14 14 15 16 17 19 20 19 18 17 15 13 15 14 14 18 20 22 23 25
8 10 12 10 9 8 9 6 6 7 7 7 6 4 4 4 3 3 4 5 4 5 7 10 12 14 15 16 16 17 18 19 17 15 14 13 12 12 12 15 18 18 22 25
9 7 7 9 6 8 5 5 6 5 5 6 7 4 4 3 3 3 4 4 4 5 8 10 12 13 15 15 16 17 17 18 17 16 14 13 11 11 13 13 15 19 18 19
Wind_Direction
181 233 223 214 241 267 291 313 99 149 183 159 185 45 41 92 154 166 222 295 279 311 328 337 335 325 317 313 323 325 332 334 334 335 340 341 345 348 338 320 312 296 285 281
237 240 244 277 265 286 312 301 98 73 200 343 142 109 117 144 350 206 215 267 292 336 329 348 339 338 334 334 330 325 332 330 329 341 343 342 339 337 342 327 313 307 300 294
235 264 296 269 297 322 257 312 312 66 163 307 163 119 149 207 333 147 167 241 288 351 349 341 334 334 319 321 317 321 326 333 331 344 337 334 337 331 336 330 323 314 303 299
263 277 243 278 261 283 283 328 24 337 314 295 245 114 63 322 240 242 191 242 260 329 300 288 311 321 316 317 325 319 326 332 337 343 328 329 328 331 330 330 330 327 321 316
277 228 260 214 257 261 258 332 316 305 309 299 206 97 54 34 293 173 206 216 165 213 239 290 315 314 331 311 313 321 330 328 331 333 332 325 329 325 327 329 329 329 326 321
261 228 178 82 343 331 323 287 328 295 272 296 113 138 58 43 95 97 107 110 135 309 289 325 346 315 310 318 316 318 322 332 332 327 327 324 324 326 326 327 328 330 330 328
224 208 234 283 264 284 306 325 323 354 256 89 99 63 55 83 74 133 135 68 47 2 357 358 318 310 306 311 313 323 326 326 327 328 327 328 329 328 327 326 329 331 331 333
279 214 203 235 206 311 2 15 55 338 341 144 49 76 84 78 71 72 91 101 50 52 327 322 312 310 313 317 320 321 323 323 327 330 333 333 333 333 333 333 340 338 338 334
325 56 193 158 191 344 330 358 343 308 320 87 94 99 78 86 105 111 98 69 60 333 312 311 312 312 311 314 320 324 324 327 328 332 336 334 337 339 342 346 346 346 347 338
63 323 207 202 264 244 188 325 25 13 18 96 96 73 110 111 101 83 74 34 352 303 299 297 297 298 302 312 319 324 328 333 331 334 335 341 345 349 351 352 353 354 357 356
284 333 140 199 21 63 140 43 42 358 20 87 124 86 122 148 173 51 7 324 309 296 298 304 307 312 317 318 325 333 339 337 339 342 349 351 351 352 353 356 359 0 1 358
219 266 41 108 59 73 12 58 59 46 357 341 114 113 136 107 133 157 284 299 287 290 296 301 312 317 326 340 348 346 345 343 344 350 354 356 358 357 357 359 2 5 6 4
152 134 358 113 100 66 77 66 65 39 354 10 96 136 154 159 196 281 289 294 303 311 315 327 329 335 348 353 353 349 348 351 358 359 360 2 3 5 8 8 9 10 10 11
156 111 65 8 110 110 88 67 62 49 38 96 130 138 169 249 290 301 307 308 322 333 336 340 343 356 357 357 354 354 358 4 6 5 5 7 12 14 15 15 16 16 17 19
224 226 224 332 115 114 107 94 82 77 69 124 136 140 126 285 286 299 309 337 335 332 337 354 359 1 3 1 359 4 4 11 11 9 13 17 18 17 17 18 21 23 24 26
190 188 202 133 142 131 109 93 112 133 64 127 136 97 294 276 295 307 332 335 335 338 358 11 8 8 7 6 9 7 10 14 15 16 19 19 20 21 25 24 25 28 27 25
181 185 177 159 155 132 115 120 134 141 158 163 159 185 265 294 313 324 337 338 340 347 10 19 10 8 11 10 13 10 15 16 17 20 18 22 24 27 27 29 26 24 27 26
183 177 195 180 155 161 142 177 151 147 148 185 209 248 292 325 327 332 341 338 336 1 9 18 12 7 9 12 14 15 17 16 18 24 20 25 31 28 31 33 36 37 35 32
213 187 197 167 171 137 164 158 180 213 184 221 258 283 304 318 319 323 332 333 344 351 8 18 10 6 10 14 15 16 17 18 20 20 28 28 33 36 35 40 45 40 36 33
179 197 200 195 166 167 168 199 214 233 208 257 280 301 310 309 312 324 322 327 314 342 2 10 6 9 9 13 18 15 17 19 23 21 19 26 38 44 43 44 40 38 36 37
197 215 220 231 170 115 191 222 223 198 226 267 298 300 317 320 305 303 291 253 263 323 2 13 7 5 6 13 17 13 15 18 21 26 20 15 29 46 45 40 40 35 34 33
176 183 216 245 167 156 205 224 223 265 280 294 302 308 332 320 311 293 246 220 260 339 6 6 2 5 7 13 16 16 14 18 19 18 22 19 26 38 45 43 41 39 37 35
193 217 228 227 193 166 199 224 260 291 298 305 306 319 328 321 306 269 226 224 263 341 9 12 8 4 15 16 16 16 14 17 20 19 12 17 28 37 43 46 47 44 39 35
212 226 239 218 187 179 218 258 294 304 306 308 316 327 320 310 293 248 223 242 263 330 10 22 16 7 12 25 15 13 14 16 18 18 17 12 23 33 37 35 44 37 33 31
215 239 222 231 231 238 254 259 282 302 309 307 331 329 320 303 289 239 240 260 283 319 12 23 15 10 9 15 14 10 11 12 14 15 20 21 13 14 22 44 34 23 29 22
187 216 236 262 237 242 255 245 283 300 304 317 335 333 316 315 285 256 268 297 326 336 355 11 16 11 9 8 7 7 10 9 9 11 16 22 12 0 5 23 30 30 10 15
Height
3166 3168 3165 3166 3167 3164 3164 3161 3159 3159 3163 3169 3172 3171 3167 3163 3173 3180 3186 3181 3179 3175 3174 3172 3170 3162 3159 3157 3152 3148 3142 3136 3131 3127 3126 3120 3116 3114 3111 3107 3102 3099 3096 3092
3167 3163 3163 3165 3166 3167 3164 3162 3163 3161 3160 3163 3169 3166 3169 3173 3173 3171 3177 3176 3175 3171 3168 3169 3164 3158 3154 3151 3146 3140 3134 3128 3124 3120 3115 3112 3109 3106 3104 3101 3098 3093 3088 3084
3164 3160 3162 3165 3165 3165 3164 3164 3163 3165 3164 3161 3163 3166 3170 3174 3175 3173 3176 3176 3174 3173 3168 3166 3162 3157 3155 3151 3144 3138 3131 3127 3122 3118 3114 3110 3105 3102 3098 3094 3091 3086 3082 3077
3162 3158 3164 3163 3163 3163 3163 3163 3161 3162 3163 3162 3161 3169 3169 3169 3171 3174 3176 3176 3173 3174 3169 3168 3163 3159 3153 3148 3142 3136 3130 3124 3121 3118 3112 3104 3096 3089 3084 3082 3078 3075 3071 3067
3160 3159 3160 3161 3162 3161 3162 3162 3160 3161 3161 3160 3159 3163 3171 3171 3172 3172 3174 3172 3171 3173 3170 3167 3163 3158 3153 3146 3141 3134 3130 3125 3121 3115 3109 3101 3094 3088 3081 3075 3071 3067 3063 3058
3157 3158 3159 3160 3159 3160 3160 3161 3159 3158 3157 3157 3157 3159 3172 3171 3171 3171 3172 3173 3171 3172 3169 3168 3165 3157 3151 3146 3140 3134 3130 3125 3119 3112 3106 3099 3091 3084 3075 3069 3065 3059 3054 3050
3156 3157 3158 3158 3159 3160 3159 3159 3158 3159 3155 3161 3160 3161 3174 3174 3174 3173 3173 3175 3174 3173 3171 3168 3159 3153 3147 3144 3139 3134 3128 3124 3116 3108 3100 3094 3088 3081 3074 3066 3061 3055 3049 3045
3157 3155 3154 3156 3159 3160 3159 3158 3159 3163 3161 3164 3161 3172 3177 3175 3174 3175 3175 3175 3175 3173 3167 3164 3158 3152 3148 3144 3139 3133 3127 3119 3111 3104 3096 3089 3082 3075 3067 3061 3056 3051 3046 3041
3156 3148 3153 3156 3157 3159 3158 3158 3158 3156 3155 3160 3173 3177 3180 3178 3178 3178 3178 3177 3175 3170 3166 3162 3157 3150 3144 3141 3137 3130 3121 3113 3107 3102 3093 3085 3077 3070 3063 3056 3052 3047 3043 3039
3155 3155 3154 3155 3157 3158 3158 3159 3158 3157 3158 3168 3178 3177 3180 3184 3182 3181 3179 3177 3173 3166 3161 3157 3154 3150 3146 3140 3136 3129 3121 3112 3105 3099 3092 3083 3075 3068 3062 3056 3051 3046 3042 3037
3154 3156 3157 3156 3157 3155 3157 3157 3158 3160 3161 3161 3173 3182 3181 3181 3182 3180 3176 3173 3169 3165 3160 3155 3150 3146 3141 3136 3130 3123 3117 3112 3105 3096 3087 3081 3074 3067 3061 3055 3050 3044 3039 3035
3155 3156 3156 3157 3157 3157 3156 3157 3159 3160 3163 3162 3164 3182 3181 3179 3178 3176 3174 3170 3167 3164 3159 3154 3150 3143 3138 3132 3126 3121 3115 3109 3101 3093 3087 3081 3075 3068 3062 3056 3050 3045 3039 3034
3154 3155 3156 3157 3159 3159 3159 3159 3159 3161 3161 3162 3164 3179 3178 3177 3175 3174 3172 3167 3163 3160 3156 3150 3145 3139 3134 3130 3125 3120 3114 3106 3100 3094 3088 3082 3076 3070 3064 3058 3052 3046 3041 3036
3153 3155 3158 3159 3159 3159 3160 3161 3161 3162 3162 3162 3165 3172 3174 3174 3172 3170 3167 3163 3160 3156 3150 3146 3141 3138 3133 3129 3124 3118 3112 3106 3100 3095 3089 3084 3078 3072 3066 3061 3054 3048 3043 3038
3154 3156 3158 3158 3159 3159 3161 3163 3164 3164 3165 3165 3170 3169 3171 3171 3169 3165 3162 3162 3160 3155 3149 3145 3141 3137 3133 3129 3124 3119 3112 3107 3102 3097 3091 3086 3080 3074 3069 3063 3057 3052 3047 3041
3154 3156 3157 3158 3159 3159 3162 3165 3165 3167 3167 3167 3168 3169 3169 3168 3166 3163 3163 3161 3157 3152 3147 3144 3141 3138 3133 3128 3124 3118 3114 3108 3103 3099 3093 3087 3082 3076 3071 3066 3061 3056 3051 3045
3154 3155 3156 3158 3159 3161 3165 3166 3165 3167 3168 3167 3167 3168 3166 3165 3163 3161 3160 3157 3154 3149 3147 3143 3140 3137 3132 3128 3124 3119 3114 3109 3105 3100 3095 3089 3084 3079 3074 3069 3065 3060 3054 3049
3153 3154 3156 3158 3158 3162 3165 3166 3165 3165 3167 3166 3166 3164 3163 3161 3158 3157 3157 3154 3152 3149 3146 3142 3140 3137 3133 3129 3125 3120 3116 3112 3108 3102 3097 3092 3087 3083 3079 3074 3069 3065 3060 3054
3151 3153 3155 3156 3158 3163 3164 3165 3165 3163 3166 3165 3164 3162 3160 3159 3156 3155 3154 3153 3150 3148 3145 3143 3141 3138 3133 3130 3126 3121 3118 3114 3110 3106 3099 3095 3091 3087 3083 3079 3075 3070 3066 3060
3150 3152 3154 3155 3157 3160 3161 3162 3163 3162 3163 3161 3161 3161 3159 3153 3153 3153 3152 3151 3149 3147 3145 3143 3141 3138 3134 3131 3127 3123 3120 3116 3112 3108 3104 3098 3093 3089 3086 3083 3080 3075 3071 3065
3150 3150 3152 3153 3155 3158 3160 3161 3162 3162 3163 3158 3159 3158 3157 3155 3153 3151 3150 3150 3148 3147 3145 3143 3141 3139 3135 3132 3129 3125 3121 3118 3114 3110 3107 3103 3098 3093 3089 3086 3083 3080 3076 3071
3148 3149 3151 3151 3153 3157 3157 3158 3160 3159 3157 3157 3157 3154 3154 3152 3150 3149 3149 3149 3148 3146 3144 3143 3142 3139 3136 3133 3130 3127 3123 3119 3115 3112 3109 3106 3102 3097 3093 3090 3087 3084 3081 3076
3148 3149 3151 3152 3150 3152 3154 3155 3156 3156 3155 3155 3154 3152 3151 3150 3149 3149 3148 3148 3147 3145 3144 3143 3142 3140 3137 3134 3130 3127 3123 3119 3117 3114 3111 3108 3104 3100 3097 3094 3091 3088 3084 3080
3145 3147 3148 3151 3151 3152 3153 3154 3154 3154 3154 3153 3152 3151 3149 3149 3148 3148 3148 3147 3146 3145 3144 3143 3141 3139 3136 3134 3130 3127 3124 3120 3117 3115 3112 3110 3106 3103 3100 3097 3094 3091 3087 3083
3144 3145 3146 3147 3149 3151 3151 3152 3153 3153 3152 3151 3150 3149 3148 3148 3147 3147 3147 3146 3146 3145 3145 3143 3141 3138 3135 3133 3131 3128 3125 3121 3118 3115 3113 3110 3108 3105 3101 3098 3095 3092 3089 3086
3141 3143 3144 3146 3148 3149 3150 3151 3151 3152 3151 3149 3148 3147 3147 3147 3147 3147 3146 3146 3147 3145 3144 3143 3141 3139 3136 3133 3131 3128 3125 3122 3119 3116 3113 3110 3108 3105 3102 3099 3097 3094 3091 3088